STW2401 URWW-UWKD

Flight info

Callsign STW2401
Flight time 1h 30m
Altitude 37000
Route RODUN1E RODUN R807 UROBO P135 DAFOS T789 SONUM SONUM1T
Aircraft B772/H-SDE2E3FGHIJ5LORVWXY/LB1D1

Departure

Time 2026-05-07 17:06
Airport Volgograd International Airport (URWW)

Arrival

Time 2026-05-07 18:37
Airport Kazan International Airport (UWKD)
Time Latitude Longitude Altitude Speed Heading
2026-05-07 16:36 48.78818 44.34616 460 ft 0 kts 338°
2026-05-07 16:55 48.78811 44.34620 460 ft 2 kts 345°
2026-05-07 16:55 48.78796 44.34622 460 ft 2 kts
2026-05-07 16:55 48.78782 44.34618 460 ft 2 kts 22°
2026-05-07 16:56 48.78769 44.34607 460 ft 2 kts 38°
2026-05-07 16:56 48.78759 44.34591 460 ft 2 kts 55°
2026-05-07 16:56 48.78747 44.34549 459 ft 2 kts 70°
2026-05-07 16:57 48.78742 44.34528 459 ft 2 kts 69°
2026-05-07 16:57 48.78736 44.34507 458 ft 1 kts 69°
2026-05-07 16:57 48.78736 44.34506 458 ft 0 kts 69°
2026-05-07 16:59 48.78738 44.34516 458 ft 1 kts 69°
2026-05-07 17:00 48.78745 44.34542 459 ft 3 kts 69°
2026-05-07 17:00 48.78756 44.34584 460 ft 5 kts 69°
2026-05-07 17:00 48.78770 44.34644 461 ft 6 kts 69°
2026-05-07 17:00 48.78788 44.34714 463 ft 6 kts 69°
2026-05-07 17:01 48.78804 44.34779 466 ft 6 kts 69°
2026-05-07 17:01 48.78819 44.34839 468 ft 6 kts 69°
2026-05-07 17:01 48.78833 44.34898 469 ft 7 kts 69°
2026-05-07 17:01 48.78856 44.34988 471 ft 8 kts 69°
2026-05-07 17:02 48.78871 44.35070 472 ft 8 kts 93°
2026-05-07 17:02 48.78830 44.35132 473 ft 9 kts 154°
2026-05-07 17:02 48.78753 44.35174 473 ft 13 kts 161°
2026-05-07 17:02 48.78705 44.35198 472 ft 0 kts 161°
2026-05-07 17:05 48.78690 44.35206 472 ft 5 kts 161°
2026-05-07 17:05 48.78628 44.35236 472 ft 11 kts 163°
2026-05-07 17:05 48.78549 44.35191 471 ft 14 kts 233°
2026-05-07 17:05 48.78496 44.35039 471 ft 17 kts 243°
2026-05-07 17:06 48.78379 44.34672 465 ft 79 kts 244°
2026-05-07 17:06 48.78004 44.33489 448 ft 164 kts 244°
2026-05-07 17:06 48.77480 44.31863 1388 ft 168 kts 244°
2026-05-07 17:06 48.76950 44.30236 1908 ft 180 kts 246°
2026-05-07 17:07 48.76389 44.28423 2347 ft 198 kts 247°
2026-05-07 17:07 48.75763 44.26442 2864 ft 216 kts 247°
2026-05-07 17:07 48.75073 44.24274 3383 ft 235 kts 246°
2026-05-07 17:07 48.74440 44.21914 3927 ft 249 kts 261°
2026-05-07 17:08 48.74447 44.19254 4381 ft 262 kts 287°
2026-05-07 17:08 48.75279 44.16820 4981 ft 266 kts 315°
2026-05-07 17:08 48.76766 44.15269 5827 ft 261 kts 342°
2026-05-07 17:08 48.78532 44.14906 6631 ft 261 kts
2026-05-07 17:09 48.80222 44.15792 7466 ft 262 kts 31°
2026-05-07 17:09 48.81702 44.17349 8325 ft 263 kts 35°
2026-05-07 17:09 48.83190 44.18993 9153 ft 265 kts 35°
2026-05-07 17:09 48.84700 44.20667 9910 ft 269 kts 36°
2026-05-07 17:10 48.86240 44.22375 10510 ft 280 kts 36°
2026-05-07 17:10 48.87857 44.24171 10939 ft 296 kts 36°
2026-05-07 17:10 48.89583 44.26089 11366 ft 313 kts 35°
2026-05-07 17:10 48.91406 44.28116 11824 ft 328 kts 36°
2026-05-07 17:11 48.93330 44.30258 12250 ft 345 kts 36°
2026-05-07 17:11 48.95284 44.32435 12885 ft 354 kts 36°
2026-05-07 17:11 48.97290 44.34673 13733 ft 358 kts 36°
2026-05-07 17:11 48.99325 44.36947 14666 ft 359 kts 36°
2026-05-07 17:12 49.01342 44.39201 15518 ft 363 kts 36°
2026-05-07 17:12 49.03415 44.41523 16345 ft 368 kts 35°
2026-05-07 17:12 49.05503 44.43862 16870 ft 376 kts 35°
2026-05-07 17:12 49.07650 44.46270 16951 ft 377 kts 35°
2026-05-07 17:13 49.09761 44.48641 16953 ft 376 kts 36°
2026-05-07 17:13 49.11876 44.51018 16954 ft 376 kts 35°
2026-05-07 17:13 49.14017 44.53428 17053 ft 387 kts 36°
2026-05-07 17:13 49.16189 44.55875 17993 ft 387 kts 36°
2026-05-07 17:14 49.18357 44.58321 19096 ft 383 kts 36°
2026-05-07 17:14 49.20522 44.60765 19949 ft 385 kts 36°
2026-05-07 17:14 49.22708 44.63236 20624 ft 391 kts 35°
2026-05-07 17:14 49.24899 44.65716 21288 ft 397 kts 36°
2026-05-07 17:15 49.27141 44.68256 22050 ft 400 kts 36°
2026-05-07 17:15 49.29391 44.70808 22775 ft 403 kts 36°
2026-05-07 17:15 49.31668 44.73394 23438 ft 408 kts 36°
2026-05-07 17:15 49.33978 44.76020 24068 ft 413 kts 36°
2026-05-07 17:16 49.36301 44.78664 24723 ft 417 kts 36°
2026-05-07 17:16 49.38631 44.81320 25380 ft 420 kts 36°
2026-05-07 17:16 49.40989 44.84010 25927 ft 426 kts 35°
2026-05-07 17:16 49.43399 44.86765 26544 ft 430 kts 36°
2026-05-07 17:17 49.45815 44.89527 27118 ft 435 kts 35°
2026-05-07 17:17 49.48249 44.92315 27720 ft 438 kts 35°
2026-05-07 17:17 49.50694 44.95121 28369 ft 440 kts 35°
2026-05-07 17:17 49.53122 44.97908 28929 ft 444 kts 35°
2026-05-07 17:18 49.55606 45.00765 29501 ft 447 kts 35°
2026-05-07 17:18 49.58100 45.03637 30147 ft 448 kts 35°
2026-05-07 17:18 49.60576 45.06491 30774 ft 448 kts 35°
2026-05-07 17:18 49.63103 45.09268 30940 ft 448 kts 30°
2026-05-07 17:19 49.68735 45.13072 30934 ft 439 kts 17°
2026-05-07 17:19 49.74490 45.16289 30948 ft 441 kts 18°
2026-05-07 17:20 49.80320 45.19289 30948 ft 443 kts 16°
2026-05-07 17:20 49.86200 45.22096 30944 ft 444 kts 15°
2026-05-07 17:21 49.89171 45.23468 31235 ft 452 kts 15°
2026-05-07 17:21 49.92135 45.24819 32070 ft 447 kts 15°
2026-05-07 17:21 49.95098 45.26160 33018 ft 440 kts 14°
2026-05-07 17:21 49.98034 45.27481 33806 ft 436 kts 14°
2026-05-07 17:22 50.00902 45.28766 34369 ft 436 kts 14°
2026-05-07 17:22 50.03801 45.29985 34841 ft 436 kts 11°
2026-05-07 17:22 50.06757 45.30980 35311 ft 435 kts 10°
2026-05-07 17:22 50.09703 45.31953 35781 ft 434 kts 10°
2026-05-07 17:23 50.12567 45.32905 36176 ft 434 kts 11°
2026-05-07 17:23 50.15502 45.33888 36528 ft 435 kts 11°
2026-05-07 17:23 50.18443 45.34879 36902 ft 437 kts 11°
2026-05-07 17:23 50.21433 45.35891 36938 ft 439 kts 11°
2026-05-07 17:24 50.27365 45.37910 36941 ft 437 kts 11°
2026-05-07 17:24 50.33322 45.39947 36940 ft 438 kts 11°
2026-05-07 17:25 50.39103 45.41930 36938 ft 437 kts 11°
2026-05-07 17:25 50.44257 45.43704 36949 ft 438 kts 11°
2026-05-07 17:26 50.50124 45.45728 36940 ft 437 kts 11°
2026-05-07 17:26 50.56080 45.47788 36943 ft 438 kts 11°
2026-05-07 17:27 50.61989 45.49838 36937 ft 437 kts 11°
2026-05-07 17:27 50.67927 45.51903 36948 ft 438 kts 11°
2026-05-07 17:28 50.73804 45.53952 36949 ft 439 kts 11°
2026-05-07 17:28 50.79761 45.56037 36945 ft 438 kts 11°
2026-05-07 17:29 50.85614 45.58133 36939 ft 438 kts 12°
2026-05-07 17:29 50.91633 45.60296 36943 ft 437 kts 12°
2026-05-07 17:30 50.97446 45.62389 36944 ft 437 kts 12°
2026-05-07 17:30 51.03369 45.64785 36950 ft 438 kts 19°
2026-05-07 17:31 51.08861 45.68707 36957 ft 439 kts 24°
2026-05-07 17:31 51.14381 45.72849 36959 ft 439 kts 24°
2026-05-07 17:32 51.19843 45.76956 36954 ft 439 kts 24°
2026-05-07 17:32 51.24489 45.80456 36944 ft 439 kts 24°
2026-05-07 17:33 51.30890 45.85291 36944 ft 437 kts 24°
2026-05-07 17:33 51.36353 45.89429 36941 ft 438 kts 24°
2026-05-07 17:34 51.41523 45.93354 36951 ft 438 kts 24°
2026-05-07 17:34 51.47128 45.97621 36947 ft 439 kts 24°
2026-05-07 17:35 51.52547 46.01757 36934 ft 438 kts 24°
2026-05-07 17:35 51.57999 46.05967 36922 ft 438 kts 25°
2026-05-07 17:36 51.63418 46.10439 36945 ft 439 kts 26°
2026-05-07 17:36 51.68827 46.14915 36929 ft 439 kts 26°
2026-05-07 17:37 51.74216 46.19376 36940 ft 440 kts 26°
2026-05-07 17:37 51.79680 46.23908 36932 ft 441 kts 26°
2026-05-07 17:38 51.85094 46.28408 36936 ft 440 kts 26°
2026-05-07 17:38 51.90530 46.32937 36932 ft 441 kts 25°
2026-05-07 17:39 51.95968 46.37479 36924 ft 442 kts 25°
2026-05-07 17:39 52.01389 46.42020 36926 ft 442 kts 25°
2026-05-07 17:40 52.06743 46.46516 36916 ft 442 kts 25°
2026-05-07 17:40 52.12195 46.51108 36925 ft 443 kts 25°
2026-05-07 17:41 52.17607 46.55678 36926 ft 443 kts 25°
2026-05-07 17:41 52.23077 46.60313 36935 ft 445 kts 25°
2026-05-07 17:42 52.28433 46.64863 36928 ft 444 kts 25°
2026-05-07 17:42 52.33893 46.69514 36905 ft 445 kts 26°
2026-05-07 17:43 52.39288 46.74123 36926 ft 446 kts 26°
2026-05-07 17:43 52.44761 46.78812 36915 ft 446 kts 26°
2026-05-07 17:44 52.50164 46.83454 36921 ft 447 kts 26°
2026-05-07 17:44 52.55644 46.88173 36919 ft 447 kts 26°
2026-05-07 17:45 52.60813 46.92638 36916 ft 447 kts 26°
2026-05-07 17:45 52.66442 46.97513 36935 ft 447 kts 26°
2026-05-07 17:46 52.71823 47.02187 36928 ft 448 kts 26°
2026-05-07 17:46 52.77354 47.07004 36941 ft 449 kts 26°
2026-05-07 17:47 52.82618 47.11603 36946 ft 449 kts 26°
2026-05-07 17:47 52.88304 47.16587 36947 ft 449 kts 26°
2026-05-07 17:48 52.93826 47.21441 36951 ft 449 kts 26°
2026-05-07 17:48 52.99416 47.26370 36952 ft 449 kts 26°
2026-05-07 17:49 53.04763 47.31097 36949 ft 450 kts 26°
2026-05-07 17:49 53.10379 47.36078 36943 ft 451 kts 26°
2026-05-07 17:50 53.15722 47.40830 36941 ft 451 kts 26°
2026-05-07 17:50 53.21312 47.45815 36939 ft 451 kts 26°
2026-05-07 17:51 53.26758 47.50686 36939 ft 451 kts 26°
2026-05-07 17:51 53.32321 47.55675 36942 ft 450 kts 26°
2026-05-07 17:52 53.37801 47.60604 36946 ft 450 kts 26°
2026-05-07 17:52 53.43322 47.65586 36947 ft 452 kts 27°
2026-05-07 17:53 53.49003 47.70443 36948 ft 451 kts 21°
2026-05-07 17:53 53.54880 47.74341 36949 ft 451 kts 20°
2026-05-07 17:54 53.60718 47.78195 36945 ft 450 kts 20°
2026-05-07 17:54 53.66540 47.82055 36938 ft 449 kts 20°
2026-05-07 17:55 53.72400 47.85377 36947 ft 448 kts 12°
2026-05-07 17:55 53.78521 47.87856 36940 ft 448 kts 12°
2026-05-07 17:56 53.84448 47.90847 36936 ft 448 kts 21°
2026-05-07 17:56 53.90245 47.95170 36934 ft 451 kts 22°
2026-05-07 17:57 53.94973 47.98734 36937 ft 451 kts 22°
2026-05-07 17:57 54.01688 48.03809 36939 ft 450 kts 22°
2026-05-07 17:58 54.07331 48.08085 36936 ft 451 kts 22°
2026-05-07 17:58 54.13002 48.12396 36942 ft 450 kts 22°
2026-05-07 17:59 54.18657 48.16706 36902 ft 448 kts 22°
2026-05-07 17:59 54.21480 48.18863 36320 ft 445 kts 22°
2026-05-07 17:59 54.24304 48.21023 35569 ft 449 kts 22°
2026-05-07 18:00 54.27051 48.23272 34743 ft 454 kts 27°
2026-05-07 18:00 54.29791 48.25863 33832 ft 458 kts 28°
2026-05-07 18:00 54.32607 48.28563 32947 ft 459 kts 28°
2026-05-07 18:00 54.35396 48.31243 32107 ft 460 kts 28°
2026-05-07 18:01 54.38153 48.33894 31264 ft 461 kts 28°
2026-05-07 18:01 54.40871 48.36511 30506 ft 461 kts 28°
2026-05-07 18:01 54.43665 48.39204 30032 ft 453 kts 28°
2026-05-07 18:01 54.46392 48.41838 29538 ft 447 kts 28°
2026-05-07 18:02 54.51676 48.46949 28496 ft 437 kts 28°
2026-05-07 18:02 54.54296 48.49489 27978 ft 432 kts 28°
2026-05-07 18:02 54.56929 48.52044 27448 ft 428 kts 28°
2026-05-07 18:03 54.59494 48.54538 26927 ft 423 kts 28°
2026-05-07 18:03 54.62018 48.56995 26415 ft 419 kts 28°
2026-05-07 18:03 54.64563 48.59476 25884 ft 415 kts 28°
2026-05-07 18:03 54.67113 48.61964 25349 ft 425 kts 28°
2026-05-07 18:04 54.69682 48.64476 24800 ft 425 kts 28°
2026-05-07 18:04 54.72148 48.66890 24265 ft 421 kts 28°
2026-05-07 18:04 54.74680 48.69373 23731 ft 416 kts 28°
2026-05-07 18:04 54.77199 48.71846 23198 ft 412 kts 28°
2026-05-07 18:05 54.79701 48.74307 22650 ft 408 kts 29°
2026-05-07 18:05 54.82151 48.76720 22127 ft 405 kts 29°
2026-05-07 18:05 54.84594 48.79130 21955 ft 400 kts 29°
2026-05-07 18:05 54.87059 48.81569 21956 ft 404 kts 29°
2026-05-07 18:06 54.89446 48.83934 21902 ft 398 kts 29°
2026-05-07 18:06 54.91839 48.86309 21355 ft 395 kts 29°
2026-05-07 18:06 54.94227 48.88681 20588 ft 398 kts 29°
2026-05-07 18:06 54.96672 48.91114 19951 ft 396 kts 29°
2026-05-07 18:07 54.99049 48.93482 19464 ft 391 kts 29°
2026-05-07 18:07 55.01370 48.95799 19028 ft 385 kts 29°
2026-05-07 18:07 55.03679 48.98105 18950 ft 385 kts 29°
2026-05-07 18:07 55.06034 49.00461 18933 ft 385 kts 29°
2026-05-07 18:08 55.08369 49.02800 18929 ft 386 kts 29°
2026-05-07 18:08 55.10631 49.05070 18701 ft 375 kts 29°
2026-05-07 18:08 55.12897 49.07347 17684 ft 373 kts 29°
2026-05-07 18:08 55.15170 49.09625 16468 ft 376 kts 27°
2026-05-07 18:09 55.17553 49.11332 15476 ft 370 kts 13°
2026-05-07 18:09 55.20042 49.12233 14614 ft 362 kts
2026-05-07 18:09 55.22481 49.12982 13793 ft 354 kts
2026-05-07 18:09 55.24867 49.13703 13261 ft 338 kts
2026-05-07 18:10 55.27119 49.14384 12884 ft 321 kts
2026-05-07 18:10 55.29289 49.15040 12578 ft 304 kts
2026-05-07 18:10 55.31312 49.15652 12346 ft 287 kts
2026-05-07 18:10 55.33262 49.16241 11988 ft 278 kts
2026-05-07 18:11 55.35137 49.16807 11436 ft 277 kts
2026-05-07 18:11 55.36414 49.16937 11052 ft 275 kts 353°
2026-05-07 18:11 55.38798 49.15449 10309 ft 271 kts 331°
2026-05-07 18:11 55.40435 49.13794 9800 ft 268 kts 330°
2026-05-07 18:12 55.42025 49.12162 9243 ft 268 kts 331°
2026-05-07 18:12 55.43606 49.10536 9004 ft 262 kts 330°
2026-05-07 18:12 55.45232 49.08865 8802 ft 265 kts 330°
2026-05-07 18:12 55.46806 49.07244 8266 ft 264 kts 330°
2026-05-07 18:13 55.48395 49.05603 7725 ft 263 kts 329°
2026-05-07 18:13 55.49808 49.03541 7227 ft 262 kts 315°
2026-05-07 18:13 55.51041 49.01201 6694 ft 261 kts 314°
2026-05-07 18:13 55.52269 48.98795 6172 ft 260 kts 314°
2026-05-07 18:14 55.53469 48.96439 5984 ft 260 kts 314°
2026-05-07 18:14 55.54681 48.94052 5950 ft 259 kts 314°
2026-05-07 18:14 55.55901 48.91658 5931 ft 259 kts 314°
2026-05-07 18:14 55.57114 48.89291 5965 ft 261 kts 314°
2026-05-07 18:15 55.58346 48.86895 5960 ft 260 kts 314°
2026-05-07 18:15 55.59563 48.84534 5957 ft 260 kts 314°
2026-05-07 18:15 55.60788 48.82167 5943 ft 260 kts 314°
2026-05-07 18:15 55.62026 48.79778 5956 ft 260 kts 314°
2026-05-07 18:16 55.63250 48.77412 5953 ft 260 kts 314°
2026-05-07 18:16 55.64463 48.75077 5952 ft 250 kts 316°
2026-05-07 18:16 55.65887 48.73488 5901 ft 235 kts 346°
2026-05-07 18:16 55.67464 48.73394 5536 ft 229 kts 17°
2026-05-07 18:17 55.68840 48.74766 5068 ft 230 kts 41°
2026-05-07 18:17 55.70029 48.76733 4618 ft 231 kts 44°
2026-05-07 18:17 55.71179 48.78694 4237 ft 229 kts 44°
2026-05-07 18:17 55.72325 48.80637 4034 ft 223 kts 44°
2026-05-07 18:18 55.73457 48.82553 4011 ft 222 kts 44°
2026-05-07 18:18 55.74587 48.84471 3979 ft 222 kts 44°
2026-05-07 18:18 55.75654 48.86283 3932 ft 204 kts 44°
2026-05-07 18:18 55.76624 48.88014 3854 ft 188 kts 54°
2026-05-07 18:19 55.76982 48.90176 3632 ft 186 kts 93°
2026-05-07 18:19 55.76479 48.92151 3448 ft 171 kts 135°
2026-05-07 18:19 55.75510 48.93124 3401 ft 149 kts 151°
2026-05-07 18:19 55.74596 48.93914 3405 ft 142 kts 151°
2026-05-07 18:20 55.73724 48.94689 3395 ft 138 kts 145°
2026-05-07 18:20 55.73029 48.95813 3390 ft 134 kts 127°
2026-05-07 18:20 55.72471 48.97166 3386 ft 133 kts 122°
2026-05-07 18:20 55.71956 48.98525 3389 ft 133 kts 122°
2026-05-07 18:21 55.71429 48.99905 3390 ft 133 kts 122°
2026-05-07 18:21 55.70908 49.01262 3367 ft 134 kts 122°
2026-05-07 18:21 55.70380 49.02635 3269 ft 134 kts 122°
2026-05-07 18:21 55.69854 49.04001 3105 ft 133 kts 122°
2026-05-07 18:22 55.69332 49.05353 2936 ft 131 kts 121°
2026-05-07 18:22 55.68990 49.06244 2822 ft 131 kts 121°
2026-05-07 18:22 55.68298 49.08033 2595 ft 130 kts 121°
2026-05-07 18:22 55.67792 49.09344 2433 ft 128 kts 121°
2026-05-07 18:23 55.67285 49.10656 2270 ft 127 kts 121°
2026-05-07 18:23 55.66790 49.11937 2107 ft 126 kts 121°
2026-05-07 18:23 55.66293 49.13220 1947 ft 125 kts 121°
2026-05-07 18:23 55.65802 49.14487 1783 ft 124 kts 121°
2026-05-07 18:24 55.65309 49.15761 1616 ft 123 kts 120°
2026-05-07 18:24 55.64825 49.17019 1452 ft 123 kts 121°
2026-05-07 18:24 55.64341 49.18275 1284 ft 123 kts 121°
2026-05-07 18:24 55.63852 49.19541 1112 ft 124 kts 121°
2026-05-07 18:25 55.63341 49.20866 1388 ft 131 kts 121°
2026-05-07 18:25 55.62839 49.22161 1894 ft 130 kts 120°
2026-05-07 18:25 55.62322 49.23502 2433 ft 133 kts 121°
2026-05-07 18:25 55.61793 49.24878 2991 ft 139 kts 121°
2026-05-07 18:26 55.61250 49.26287 3693 ft 142 kts 121°
2026-05-07 18:26 55.60681 49.27763 3986 ft 158 kts 121°
2026-05-07 18:26 55.60007 49.29520 3991 ft 180 kts 122°
2026-05-07 18:26 55.59266 49.31440 3998 ft 191 kts 122°
2026-05-07 18:27 55.58495 49.33440 3995 ft 197 kts 122°
2026-05-07 18:27 55.57523 49.35366 4003 ft 230 kts 146°
2026-05-07 18:27 55.55887 49.36080 3984 ft 255 kts 184°
2026-05-07 18:27 55.54728 49.35463 3978 ft 260 kts 209°
2026-05-07 18:28 55.53290 49.32160 3974 ft 264 kts 257°
2026-05-07 18:28 55.53387 49.29001 3976 ft 261 kts 290°
2026-05-07 18:28 55.54085 49.25994 3986 ft 261 kts 295°
2026-05-07 18:28 55.54821 49.23066 3982 ft 259 kts 295°
2026-05-07 18:29 55.55563 49.20121 3984 ft 260 kts 295°
2026-05-07 18:29 55.56297 49.17200 3979 ft 260 kts 295°
2026-05-07 18:29 55.57034 49.14272 3980 ft 260 kts 295°
2026-05-07 18:29 55.57767 49.11350 3988 ft 260 kts 295°
2026-05-07 18:30 55.58503 49.08416 3970 ft 260 kts 295°
2026-05-07 18:30 55.59249 49.05432 3978 ft 261 kts 295°
2026-05-07 18:30 55.59971 49.02546 3984 ft 259 kts 295°
2026-05-07 18:30 55.60709 48.99591 3977 ft 259 kts 295°
2026-05-07 18:31 55.61491 48.96719 3976 ft 258 kts 306°
2026-05-07 18:31 55.62815 48.94602 3971 ft 256 kts 334°
2026-05-07 18:31 55.64527 48.93876 3964 ft 250 kts
2026-05-07 18:31 55.66159 48.94612 3893 ft 236 kts 28°
2026-05-07 18:32 55.67567 48.96092 3441 ft 236 kts 34°
2026-05-07 18:32 55.68913 48.97759 3033 ft 233 kts 45°
2026-05-07 18:32 55.69738 49.00086 2744 ft 218 kts 75°
2026-05-07 18:32 55.69830 49.02631 2675 ft 194 kts 93°
2026-05-07 18:33 55.69518 49.04870 2701 ft 187 kts 114°
2026-05-07 18:33 55.68822 49.06802 2670 ft 181 kts 123°
2026-05-07 18:33 55.68103 49.08574 2530 ft 166 kts 122°
2026-05-07 18:33 55.67474 49.10195 2333 ft 153 kts 121°
2026-05-07 18:34 55.66888 49.11719 2146 ft 146 kts 121°
2026-05-07 18:34 55.66322 49.13182 1956 ft 142 kts 121°
2026-05-07 18:34 55.65768 49.14615 1770 ft 138 kts 121°
2026-05-07 18:34 55.65238 49.15986 1596 ft 129 kts 120°
2026-05-07 18:35 55.64736 49.17287 1433 ft 125 kts 121°
2026-05-07 18:35 55.64243 49.18559 1260 ft 122 kts 121°
2026-05-07 18:35 55.63771 49.19779 1098 ft 121 kts 122°
2026-05-07 18:35 55.63280 49.21045 923 ft 126 kts 122°
2026-05-07 18:36 55.62780 49.22337 752 ft 126 kts 122°
2026-05-07 18:36 55.62286 49.23612 576 ft 125 kts 122°
2026-05-07 18:36 55.61789 49.24893 406 ft 124 kts 123°
2026-05-07 18:36 55.61323 49.26074 361 ft 105 kts 123°
2026-05-07 18:37 55.60966 49.27008 376 ft 75 kts 124°
2026-05-07 18:37 55.60721 49.27638 388 ft 49 kts 124°
2026-05-07 18:37 55.60565 49.28040 394 ft 32 kts 124°
2026-05-07 18:37 55.60446 49.28345 399 ft 26 kts 124°
2026-05-07 18:38 55.60408 49.28588 402 ft 21 kts 47°
2026-05-07 18:38 55.60482 49.28686 405 ft 0 kts 34°
2026-05-07 18:38 55.60484 49.28688 405 ft 0 kts 34°
2026-05-07 18:38 55.60485 49.28689 405 ft 0 kts 34°
2026-05-07 18:39 55.60489 49.28694 405 ft 3 kts 34°
2026-05-07 18:40 55.60519 49.28764 408 ft 10 kts 77°
2026-05-07 18:40 55.60475 49.28922 408 ft 19 kts 123°
2026-05-07 18:40 55.60381 49.29168 409 ft 27 kts 124°
2026-05-07 18:40 55.60268 49.29458 413 ft 28 kts 124°
2026-05-07 18:41 55.60155 49.29749 414 ft 28 kts 124°
2026-05-07 18:41 55.60116 49.29869 414 ft 11 kts 99°
2026-05-07 18:41 55.60166 49.29951 417 ft 12 kts 352°
2026-05-07 18:41 55.60257 49.29900 418 ft 15 kts 341°
2026-05-07 18:42 55.60358 49.29892 420 ft 14 kts 26°
2026-05-07 18:42 55.60448 49.29993 421 ft 16 kts 34°
2026-05-07 18:42 55.60524 49.30084 422 ft 11 kts 31°
2026-05-07 18:42 55.60605 49.30095 421 ft 11 kts 26°
2026-05-07 18:43 55.60641 49.30138 421 ft 0 kts 33°